Flag for Germany Weather past 2 weeks in Friesoythe, Lower Saxony, Germany

Now
41 °F

Quite cool.


Feels Like: 35 °F
Forecast: 47 / 53 °F
Wind: 9 mph from West

Location: Meppen-Mil

Current Time: Dec 21, 2014 at 4:38:54 AM

Latest Report: Dec 21, 2014 at 3:20 AM


Visibility: 5 mi

Pressure: 30.27 "Hg

Humidity: 81%

Dew point: 36 °F

Location of FriesoytheLocation

Historic Weather in Friesoythe — Graph

°F

Friesoythe temperature yesterday

Maximum temperature yesterday: 46 °F (at 11:20 AM)
Minimum temperature yesterday: 39 °F (at 2:20 PM)
Average temperature yesterday: 43 °F

Past Weeks' High & Low Weather Summary

 TemperatureHumidityPressure
High54 °F (Dec 18, 2:20 PM)100% (Dec 6, 10:20 AM)30.33 "Hg (Dec 6, 10:20 AM)
Low34 °F (Dec 9, 5:20 AM)66% (Dec 19, 2:20 PM)29.24 "Hg (Dec 12, 11:20 AM)
Average41 °F87%29.85 "Hg
* Reported Dec 6 3:20 AM — Dec 21 3:20 AM, Friesoythe, Weather by CustomWeather, © 2014

Note: Actual official high and low records may vary slightly from our data, if they occured in-between our weather recording intervals... More about our weather records

Advertising

Friesoythe weather history for previous 24 hours

 ConditionsComfort  
Time TempWeatherWind HumidityBarometerVisibility
3:20 AM
Dec 21
41 °FQuite cool.9 mph81%30.27 "Hg5 mi
2:20 AM41 °FQuite cool.8 mph87%30.24 "Hg5 mi
1:20 AM41 °FQuite cool.9 mph81%30.21 "Hg5 mi
12:20 AM41 °FQuite cool.9 mph81%30.21 "Hg5 mi
11:20 PM
Dec 20
39 °FChilly.9 mph87%30.18 "Hg5 mi
10:20 PM39 °FChilly.8 mph87%30.15 "Hg6 mi
9:20 PM41 °FQuite cool.8 mph81%30.12 "Hg5 mi
8:20 PM41 °FQuite cool.9 mph81%30.09 "Hg6 mi
7:20 PM41 °FQuite cool.10 mph81%30.07 "Hg6 mi
6:20 PM39 °FChilly.12 mph87%30.01 "Hg6 mi
5:20 PM43 °FQuite cool.17 mph81%30.01 "Hg1 mi
4:20 PM43 °FQuite cool.13 mph81%29.95 "Hg5 mi
3:20 PM41 °FQuite cool.14 mph87%29.92 "Hg1 mi
2:20 PM39 °FChilly.15 mph87%29.92 "Hg1 mi
1:20 PM46 °FCool.18 mph71%29.89 "HgN/A
12:20 PM46 °FCool.20 mph71%29.89 "HgN/A
11:20 AM46 °FCool.20 mph71%29.92 "HgN/A
10:20 AM45 °FQuite cool.18 mph76%29.92 "HgN/A
9:20 AM45 °FQuite cool.17 mph76%29.92 "HgN/A
8:20 AM45 °FQuite cool.16 mph76%29.92 "HgN/A
7:20 AM45 °FQuite cool.17 mph76%29.95 "HgN/A
6:20 AM45 °FQuite cool.18 mph76%29.95 "HgN/A
5:20 AM45 °FQuite cool.16 mph76%29.95 "HgN/A
4:20 AM45 °FQuite cool.16 mph76%29.98 "HgN/A
Weather by CustomWeather, © 2014

See weather overviewHow to use our weather pages